AirNav   ATP
 
 967 users online  

27FL Wesley Chapel Medical Center Heliport
Wesley Chapel, Florida, USA

GOING TO WESLEY CHAPEL?


FAA INFORMATION EFFECTIVE 08 NOVEMBER 2018

Location

FAA Identifier: 27FL
Lat/Long: 28-11-40.9300N / 082-21-01.7000W
28-11.682167N / 082-21.028333W
28.1947028 / -82.3504722
(estimated)
Elevation: 174 ft. / 53 m (estimated)
Time zone: UTC -5 (UTC -4 during Daylight Saving Time)
Zip code: 33543

Heliport Operations

Heliport use: Private use. Permission required prior to landing
Activation date: 04/2013
Control tower: no
ARTCC: MIAMI CENTER
FSS: SAINT PETERSBURG FLIGHT SERVICE STATION
Attendance: CONTINUOUS
Wind indicator: yes
Segmented circle: no

Heliport Communications

WX ASOS at ZPH (10 nm E): 118.975 (813-780-0031)
WX AWOS-3 at VDF (11 nm S): 121.125 (813-630-0924)
WX AWOS-3 at PCM (15 nm SE): 120.025 (813-764-8259)
WX ASOS at TPA (16 nm SW): PHONE 813-873-7228
WX AWOS-3 at TPF (18 nm S): 118.925 (813-251-6824)
WX ASOS at BKV (18 nm N): 134.725 (352-799-5881)

Nearby radio navigation aids

VOR radial/distance  VOR name  Freq  Var
LALr304/21.8LAKELAND VORTAC116.0001E
PIEr051/24.7ST PETERSBURG VORTAC116.4005W

 
NDB name  Hdg/Dist  Freq  Var  ID
COSME060/11.336805WTP - .--.

Heliport Services

Runway Information

Helipad H1

Dimensions: 61 x 61 ft. / 19 x 19 m
Surface: concrete
Latitude: 28-11.682167N
Longitude: 082-21.028333W
Elevation: 174.0 ft.
Traffic pattern: leftleft

Heliport Ownership and Management from official FAA records

Ownership: Privately-owned
Owner: PASCO-PINELIAS HILLSBOROUGH COMM.
2600 BRUCE B. DOWNS BLVD
WESLEY CHAPEL, FL 33544
Phone 813-929-5490
Manager: JOHN CROUCH
2600 BRUCE B. DOWNS BLVD
WESLEY CHAPEL, FL 33544
Phone 813-929-5490
PASCO-PINELIAS HILLSBOROUGH COMMUNITY HEALTH SYSTEM

Instrument Procedures

There are no published instrument procedures at 27FL.

Some nearby airports with instrument procedures:

KZPH - Zephyrhills Municipal Airport (10 nm E)
KVDF - Tampa Executive Airport (11 nm S)
KPCM - Plant City Airport (15 nm SE)
KTPA - Tampa International Airport (16 nm SW)
KTPF - Peter O Knight Airport (18 nm S)
KBKV - Brooksville-Tampa Bay Regional Airport (18 nm N)
 
Loc | Ops | Rwys | IFR | FBO | Links
Com | Nav | Svcs | Stats | Notes


 
Aerial photo
No photo
 
Airport distance calculator
Flying to Wesley Chapel Medical Center Heliport? Find the distance to fly.

From to 27FL

Sunrise and sunset
Times for 14-Nov-2018
 Local
(UTC-5)
 Zulu
(UTC)
Morning civil twilight06:2711:27
Sunrise06:5211:52
Sunset17:3622:36
Evening civil twilight18:0123:01

Current date and time
Zulu (UTC)  15-Nov-2018 01:14:02
Local (UTC-5)  14-Nov-2018 20:14:02
 
METAR
KZPH 
10nm E 
150055Z AUTO 04005KT 10SM SCT040 BKN048 OVC060 23/22 A2999 RMK AO2 T02330220
KVDF 
11nm S 
150055Z AUTO 00000KT 10SM SCT050 SCT080 BKN110 23/22 A2997 RMK AO2
KPCM 
15nm SE 
150055Z AUTO 00000KT 10SM BKN041 OVC048 25/22 A3000 RMK AO2
KTPA 
17nm SW 
142353Z 00000KT 10SM SCT040 BKN160 28/21 A2997 RMK AO2 SLP147 60000 T02830211 10306 20283 50000
KBKV 
17nm N 
150053Z 06011KT 10SM FEW041 SCT048 BKN060 23/22 A2999 RMK AO2 SLP155 T02330217
KTPF 
18nm S 
150055Z AUTO 23004KT 10SM SCT045 BKN075 OVC110 26/23 A2998 RMK AO2
TAF
KTPA 
17nm SW 
142115Z 1421/1524 04005KT P6SM VCTS SCT035CB BKN050 OVC080 FM150100 04003KT 6SM -RA VCTS SCT015CB BKN025 OVC050 FM150600 29010KT P6SM -RA SCT010 OVC025 FM151400 33012KT P6SM BKN015 OVC025 FM151800 32012KT P6SM SCT015 BKN025 OVC080
NOTAMs
Click for the latest NOTAMs
NOTAMs are issued by the DoD/FAA and will open in a separate window not controlled by AirNav.

 

 
 

Would you like to see your business listed on this page?

 If your business provides an interesting product or service to pilots, flight crews, aircraft, or users of the Wesley Chapel Medical Center Heliport, you should consider listing it here.  To start the listing process, click on the button below
 
Add a business
 

Other Pages about Wesley Chapel Medical Center Heliport

Update a link
 
Copyright © AirNav, LLC. All rights reserved. Privacy Policy  Contact